OpenBCM V2.0.2 (Linux)

Packet Radio Mailbox

IZ3LSV

[San Dona' di P. JN]

 Login: GUEST





  
CX2SA  > KEPS     19.07.13 03:19l 94 Lines 2398 Bytes #999 (0) @ WW
BID : ORB13199.O
Read: GUEST
Subj: Orbital Elements  13199.OSCAR
Path: IZ3LSV<IQ5KG<IK1NHL<CX2SA
Sent: 130719/0112Z @:CX2SA.SAL.URY.SA #:8669 [Salto] FBB7.00e $:ORB13199.O
From: CX2SA@CX2SA.SAL.URY.SA
To  : KEPS@AMSAT


HR AMSAT ORBITAL ELEMENTS FOR OSCAR SATELLITES
FROM WA5QGD FORT WORTH,TX July 18, 2013
BID: ORB13199.O
TO ALL RADIO AMATEURS BT

Satellite: AO-07
Catalog number: 07530
Epoch time:      13199.07890928
Element set:     731
Inclination:      101.4327 deg
RA of node:       187.4657 deg
Eccentricity:    0.0011521
Arg of perigee:   226.2094 deg
Mean anomaly:     222.4972 deg
Mean motion:   12.53597346 rev/day
Decay rate:       -4.4e-07 rev/day^2
Epoch rev:           76965
Checksum:              316

Satellite: FO-29
Catalog number: 24278
Epoch time:      13198.16220135
Element set:     156
Inclination:      098.5536 deg
RA of node:       252.7145 deg
Eccentricity:    0.0351532
Arg of perigee:   086.5585 deg
Mean anomaly:     335.6596 deg
Mean motion:   13.53003402 rev/day
Decay rate:        1.4e-07 rev/day^2
Epoch rev:           83536
Checksum:              305

Satellite: SO-33
Catalog number: 25509
Epoch time:      13198.58636773
Element set:     540
Inclination:      031.4304 deg
RA of node:       255.5027 deg
Eccentricity:    0.0350950
Arg of perigee:   064.0730 deg
Mean anomaly:     083.6639 deg
Mean motion:   14.29098473 rev/day
Decay rate:       2.75e-06 rev/day^2
Epoch rev:           76924
Checksum:              320

Satellite: RS-22
Catalog number: 27939
Epoch time:      13199.74790690
Element set:     595
Inclination:      097.8006 deg
RA of node:       025.9486 deg
Eccentricity:    0.0014494
Arg of perigee:   086.6188 deg
Mean anomaly:     273.6694 deg
Mean motion:   14.64512431 rev/day
Decay rate:       5.81e-06 rev/day^2
Epoch rev:           52391
Checksum:              353

Satellite: VO-52
Catalog number: 28650
Epoch time:      13199.07522696
Element set:     476
Inclination:      097.5677 deg
RA of node:       216.0935 deg
Eccentricity:    0.0026445
Arg of perigee:   175.6582 deg
Mean anomaly:     260.0801 deg
Mean motion:   14.83988178 rev/day
Decay rate:       7.86e-06 rev/day^2
Epoch rev:           44366
Checksum:              355

Satellite: HO-68
Catalog number: 36122
Epoch time:      13199.74478857
Element set:     733
Inclination:      100.3034 deg
RA of node:       255.9972 deg
Eccentricity:    0.0007212
Arg of perigee:   283.3971 deg
Mean anomaly:     076.6337 deg
Mean motion:   13.16305578 rev/day
Decay rate:       -4.4e-07 rev/day^2
Epoch rev:           17256
Checksum:              321



Read previous mail | Read next mail


 01.05.2026 21:28:35lGo back Go up